• In Uzbekistan
  • List of Countries
  • For 7 days
  • Water Temperature
  • Satellite Maps
  • Weather Map
  • Weather Widgets
  • user-avatar
    Login

    Hourly Weather Kartasenevskiy

    Today, 22 October, Monday

    Time Temperature Precipitation Wind Pressure Humidity
    00:00 +4°C° 0 mm 1 mps 748 mmHg 80%
    01:00 +4°C° 0 mm 1 mps 748 mmHg 81%
    02:00 +3°C° 0 mm 1 mps 748 mmHg 83%
    03:00 +4°C° 0 mm 1 mps 748 mmHg 79%
    04:00 +4°C° 0 mm 1 mps 748 mmHg 79%
    05:00 +4°C° 0 mm 1 mps 748 mmHg 80%
    06:00 +4°C° 0 mm 1 mps 748 mmHg 81%
    07:00 +4°C° 0 mm 1 mps 748 mmHg 79%
    08:00 +5°C° 0 mm 1 mps 748 mmHg 77%
    09:00 +5°C° 0 mm 1 mps 748 mmHg 74%
    10:00 +6°C° 0 mm 1 mps 747 mmHg 71%
    11:00 +7°C° 0 mm 1 mps 747 mmHg 67%
    12:00 +7°C° 0 mm 2 mps 746 mmHg 63%
    13:00 +7°C° 0 mm 2 mps 746 mmHg 62%
    14:00 +7°C° 0 mm 2 mps 745 mmHg 60%
    15:00 +8°C° 0 mm 3 mps 745 mmHg 59%
    16:00 +7°C° 0 mm 3 mps 744 mmHg 64%
    17:00 +6°C° 0 mm 2 mps 744 mmHg 69%
    18:00 +5°C° 0 mm 2 mps 743 mmHg 74%
    19:00 +4°C° 0 mm 2 mps 743 mmHg 76%
    20:00 +3°C° 0 mm 3 mps 742 mmHg 77%
    21:00 +2°C° 0 mm 3 mps 742 mmHg 79%
    22:00 +2°C° 0 mm 3 mps 741 mmHg 80%
    23:00 +2°C° 0 mm 3 mps 741 mmHg 81%

    Tomorrow, 23 October, Tuesday

    Time Temperature Precipitation Wind Pressure Humidity
    00:00 +2°C° 0 mm 3 mps 740 mmHg 82%
    01:00 +1°C° 0 mm 3 mps 739 mmHg 82%
    02:00 +1°C° 0 mm 3 mps 739 mmHg 83%
    03:00 +1°C° 0 mm 3 mps 738 mmHg 83%
    04:00 +1°C° 0 mm 3 mps 737 mmHg 84%
    05:00 +1°C° 0 mm 3 mps 737 mmHg 84%
    06:00 0°C° 0 mm 4 mps 736 mmHg 84%
    07:00 0°C° 0 mm 4 mps 735 mmHg 83%
    08:00 +1°C° 0 mm 4 mps 735 mmHg 81%
    09:00 +1°C° 0 mm 5 mps 735 mmHg 80%
    10:00 +2°C° 0 mm 5 mps 735 mmHg 78%
    11:00 +4°C° 0 mm 4 mps 734 mmHg 76%
    12:00 +5°C° 0 mm 4 mps 734 mmHg 74%
    13:00 +5°C° 0 mm 4 mps 733 mmHg 76%
    14:00 +5°C° 0 mm 4 mps 733 mmHg 77%
    15:00 +5°C° 0 mm 4 mps 732 mmHg 79%
    16:00 +4°C° 0.1 mm 3 mps 732 mmHg 82%
    17:00 +4°C° 0.1 mm 3 mps 732 mmHg 84%
    18:00 +5°C° 0.1 mm 2 mps 731 mmHg 87%
    19:00 +5°C° 0 mm 2 mps 731 mmHg 88%
    20:00 +3°C° 0 mm 3 mps 730 mmHg 89%
    21:00 +3°C° 0 mm 3 mps 730 mmHg 90%
    22:00 +3°C° 0 mm 3 mps 729 mmHg 90%
    23:00 +3°C° 0 mm 3 mps 728 mmHg 90%

    Day after tomorrow, 24 October, Wednesday

    Time Temperature Precipitation Wind Pressure Humidity
    00:00 +3°C° 0 mm 3 mps 728 mmHg 89%
    01:00 +3°C° 0.1 mm 3 mps 727 mmHg 89%
    02:00 +3°C° 0.1 mm 3 mps 726 mmHg 88%
    03:00 +3°C° 0.1 mm 4 mps 726 mmHg 87%
    04:00 +3°C° 0.1 mm 4 mps 725 mmHg 86%
    05:00 +3°C° 0.1 mm 4 mps 724 mmHg 86%
    06:00 +3°C° 0.1 mm 3 mps 723 mmHg 85%
    07:00 +3°C° 0.1 mm 4 mps 723 mmHg 82%
    08:00 +3°C° 0.1 mm 4 mps 723 mmHg 80%
    09:00 +3°C° 0.1 mm 5 mps 722 mmHg 77%
    10:00 +3°C° 0.3 mm 5 mps 722 mmHg 76%
    11:00 +5°C° 0.3 mm 5 mps 721 mmHg 75%
    12:00 +4°C° 0.3 mm 6 mps 721 mmHg 74%
    13:00 +4°C° 0.4 mm 6 mps 721 mmHg 76%
    14:00 +5°C° 0.4 mm 6 mps 721 mmHg 78%
    15:00 +5°C° 0.4 mm 6 mps 720 mmHg 80%
    16:00 +6°C° 0.2 mm 5 mps 720 mmHg 81%
    17:00 +6°C° 0.2 mm 5 mps 720 mmHg 83%
    18:00 +6°C° 0.2 mm 5 mps 720 mmHg 85%
    19:00 +6°C° 0.6 mm 5 mps 720 mmHg 87%
    20:00 +5°C° 0.6 mm 5 mps 719 mmHg 89%
    21:00 +5°C° 0.6 mm 5 mps 719 mmHg 91%
    22:00 +5°C° 1 mm 5 mps 719 mmHg 91%
    23:00 +5°C° 1 mm 5 mps 719 mmHg 92%

    25 October, Thursday

    Time Temperature Precipitation Wind Pressure Humidity
    00:00 +6°C° 1 mm 5 mps 718 mmHg 93%
    01:00 +6°C° 0.4 mm 4 mps 718 mmHg 94%
    02:00 +6°C° 0.4 mm 4 mps 717 mmHg 94%
    03:00 +7°C° 0.4 mm 3 mps 717 mmHg 94%
    04:00 +6°C° 0.3 mm 4 mps 716 mmHg 94%
    05:00 +6°C° 0.3 mm 5 mps 715 mmHg 94%
    06:00 +6°C° 0.3 mm 5 mps 714 mmHg 94%
    07:00 +6°C° 1.1 mm 5 mps 714 mmHg 91%
    08:00 +5°C° 1.1 mm 6 mps 713 mmHg 87%
    09:00 +5°C° 1.1 mm 6 mps 713 mmHg 83%
    10:00 +5°C° 0.2 mm 6 mps 713 mmHg 79%
    11:00 +5°C° 0.2 mm 6 mps 712 mmHg 74%
    12:00 +5°C° 0.2 mm 6 mps 712 mmHg 69%
    13:00 +5°C° 0.2 mm 5 mps 712 mmHg 70%
    14:00 +5°C° 0.2 mm 4 mps 711 mmHg 71%
    15:00 +5°C° 0.2 mm 3 mps 711 mmHg 71%
    16:00 +5°C° 0.1 mm 3 mps 711 mmHg 76%
    17:00 +5°C° 0.1 mm 2 mps 711 mmHg 80%
    18:00 +4°C° 0.1 mm 2 mps 712 mmHg 84%
    19:00 +3°C° 0 mm 3 mps 712 mmHg 85%
    20:00 +3°C° 0 mm 4 mps 713 mmHg 86%
    21:00 +3°C° 0 mm 4 mps 714 mmHg 88%
    22:00 +2°C° 0.3 mm 5 mps 715 mmHg 86%
    23:00 +2°C° 0.3 mm 6 mps 715 mmHg 85%

    26 October, Friday

    Time Temperature Precipitation Wind Pressure Humidity
    00:00 +2°C° 0.3 mm 7 mps 716 mmHg 84%
    01:00 +2°C° 0.2 mm 7 mps 717 mmHg 83%
    02:00 0°C° 0.2 mm 7 mps 717 mmHg 82%
    03:00 0°C° 0.2 mm 7 mps 718 mmHg 81%
    04:00 0°C° 0.1 mm 7 mps 719 mmHg 81%
    05:00 0°C° 0.1 mm 7 mps 719 mmHg 81%
    06:00 -1°C° 0.1 mm 7 mps 720 mmHg 81%
    07:00 -1°C° 0.1 mm 6 mps 721 mmHg 80%
    08:00 -1°C° 0.1 mm 6 mps 722 mmHg 79%
    09:00 -1°C° 0.1 mm 6 mps 723 mmHg 78%
    10:00 -1°C° 0 mm 6 mps 724 mmHg 76%
    11:00 -1°C° 0 mm 6 mps 724 mmHg 73%
    12:00 0°C° 0 mm 7 mps 725 mmHg 70%
    13:00 0°C° 0 mm 7 mps 726 mmHg 70%
    14:00 0°C° 0 mm 7 mps 727 mmHg 69%
    15:00 0°C° 0 mm 7 mps 728 mmHg 68%
    16:00 +1°C° 0 mm 6 mps 728 mmHg 71%
    17:00 +1°C° 0 mm 6 mps 729 mmHg 73%
    18:00 -1°C° 0 mm 6 mps 730 mmHg 75%
    19:00 0°C° 0 mm 5 mps 731 mmHg 76%
    20:00 0°C° 0 mm 5 mps 731 mmHg 77%
    21:00 0°C° 0 mm 5 mps 732 mmHg 78%
    22:00 0°C° 0 mm 5 mps 732 mmHg 79%
    23:00 0°C° 0 mm 5 mps 733 mmHg 80%

    27 October, Saturday

    Time Temperature Precipitation Wind Pressure Humidity
    00:00 0°C° 0 mm 5 mps 733 mmHg 81%
    01:00 0°C° 0 mm 5 mps 734 mmHg 81%
    02:00 0°C° 0 mm 5 mps 735 mmHg 82%
    03:00 0°C° 0 mm 5 mps 735 mmHg 83%
    04:00 -1°C° 0 mm 5 mps 736 mmHg 86%
    05:00 -1°C° 0 mm 5 mps 736 mmHg 88%
    06:00 -1°C° 0 mm 5 mps 736 mmHg 91%
    07:00 -1°C° 0 mm 5 mps 737 mmHg 89%
    08:00 -1°C° 0 mm 5 mps 737 mmHg 88%
    09:00 -1°C° 0 mm 5 mps 738 mmHg 86%
    10:00 0°C° 0 mm 5 mps 738 mmHg 81%
    11:00 +2°C° 0 mm 5 mps 738 mmHg 76%
    12:00 +3°C° 0 mm 5 mps 738 mmHg 72%
    13:00 +3°C° 0 mm 5 mps 738 mmHg 71%
    14:00 +3°C° 0 mm 5 mps 738 mmHg 70%
    15:00 +5°C° 0 mm 5 mps 738 mmHg 69%
    16:00 +3°C° 0 mm 5 mps 738 mmHg 72%
    17:00 +3°C° 0 mm 5 mps 738 mmHg 75%
    18:00 +2°C° 0 mm 5 mps 738 mmHg 78%
    19:00 +3°C° 0.1 mm 5 mps 738 mmHg 79%
    20:00 +3°C° 0.1 mm 6 mps 737 mmHg 80%
    21:00 +3°C° 0.1 mm 6 mps 737 mmHg 81%
    22:00 +3°C° 0 mm 6 mps 737 mmHg 81%
    23:00 +3°C° 0 mm 6 mps 737 mmHg 81%

    28 October, Sunday

    Time Temperature Precipitation Wind Pressure Humidity
    00:00 +4°C° 0 mm 6 mps 737 mmHg 81%
    01:00 +3°C° 0 mm 5 mps 737 mmHg 84%
    02:00 +3°C° 0 mm 5 mps 737 mmHg 87%
    03:00 +3°C° 0 mm 4 mps 737 mmHg 89%
    04:00 +4°C° 0 mm 4 mps 737 mmHg 90%
    05:00 +4°C° 0 mm 4 mps 737 mmHg 91%
    06:00 +5°C° 0 mm 4 mps 737 mmHg 92%
    07:00 +5°C° 0 mm 4 mps 737 mmHg 93%
    08:00 +6°C° 0 mm 4 mps 737 mmHg 93%
    09:00 +6°C° 0 mm 4 mps 737 mmHg 93%
    10:00 +7°C° 0 mm 5 mps 737 mmHg 90%
    11:00 +8°C° 0 mm 5 mps 737 mmHg 87%
    12:00 +9°C° 0 mm 5 mps 737 mmHg 84%
    13:00 +9°C° 0 mm 5 mps 737 mmHg 84%
    14:00 +10°C° 0 mm 6 mps 737 mmHg 84%
    15:00 +10°C° 0 mm 6 mps 736 mmHg 84%
    16:00 +10°C° 0.1 mm 6 mps 736 mmHg 85%
    17:00 +10°C° 0.1 mm 7 mps 736 mmHg 86%
    18:00 +10°C° 0.1 mm 7 mps 736 mmHg 87%
    19:00 +10°C° 0.2 mm 7 mps 736 mmHg 87%
    20:00 +10°C° 0.2 mm 7 mps 736 mmHg 86%
    21:00 +11°C° 0.2 mm 7 mps 736 mmHg 86%
    22:00 +11°C° 0.2 mm 7 mps 736 mmHg 86%
    23:00 +11°C° 0.2 mm 6 mps 736 mmHg 86%
    Show more